901 visiteurs
Prévisions de votre ville :
Vigilance : Tous les dép. en vert Mise à jour le 16/09/2019 à 06:06 - Voir la carte

Paris Roissy CDG (95380) le 16/09/2019 à 12:30 Choisir station

23°C 23 % OSO Vit. moyenne 11 kmh/h

Relevés météo quotidiens pour la station de :

UTC
S: Synop
M: Metar
Loc T°C
(°C)
Td
(°C)
HR
(%)
Vis
(km)
Néb
(octa)
Vent
(km/h)
Pression
(mb)
Précipitations
(mm)
Temps
              MOY
10 min
DIR RAF 1h MESURE VAR SUR 3h    
S 00 h 02h 25.2 23.3 89 - 9 13 1010.8 -0.2/3h 0.0/6h - 0.0/3h -
S 01 h 03h 25.6 23.5 88 - 4 13 1010.9 +0.2/3h 0.0/1h -
S 02 h 04h 25.9 21.1 75 - 2 19 1010.9 0.0/3h 0.0/1h -
S 03 h 05h 26.9 19.8 65 15 2/8 11 24 1011.5 +0.7/3h 0.0/3h
S 04 h 06h 26.0 18.7 64 - 6 20 1011.6 +0.7/3h 0.0/1h -
S 05 h 07h 25.5 18.2 64 - 7 15 1011.7 +0.8/3h 0.0/1h -
S 06 h 08h 26.1 18.0 61 15 2/8 19 33 1011.8 +0.3/3h 0.0/12h - 0.0/3h - 0.0/24h
S 07 h 09h 28.0 18.1 55 - 7 35 1011.6 +0.1/3h 0.0/1h -
S 08 h 10h 29.0 17.8 51 - 17 28 1011.9 +0.3/3h 0.0/1h -
S 09 h 11h 31.3 17.9 45 - 19 33 1012.1 +0.4/3h 0.0/3h -
S 10 h 12h 32.1 17.9 43 - 24 41 1012.0 +0.4/3h 0.0/1h -
S 11 h 13h 32.6 16.4 38 - 24 46 1012.0 +0.1/3h 0.0/1h -
S 12 h 14h 32.4 16.3 38 18 4/8 19 41 1011.6 -0.5/3h 0.0/6h - 0.0/3h
S 13 h 15h 33.3 15.8 35 - 9 20 1011.0 -1.0/3h 0.0/1h -
S 14 h 16h 35.0 15.8 32 - 19 35 1010.2 -1.7/3h 0.0/1h -
S 15 h 17h 35.5 15.8 31 - 19 35 1010.0 -1.5/3h 0.0/3h -
S 16 h 18h 35.2 16.0 32 - 9 19 1009.8 -1.1/3h 0.0/1h -
S 17 h 19h 29.8 19.5 54 - 7 19 1010.2 -0.1/3h 0.0/1h -
S 18 h 20h 32.0 16.3 39 18 4/8 11 20 1010.1 0.0/3h 0.0/12h - 0.0/3h
S 19 h 21h 31.2 15.6 39 - 11 22 1010.7 +0.8/3h 0.0/1h -
S 20 h 22h 30.0 15.7 42 - 20 41 1010.9 +0.7/3h 0.0/1h -
S 21 h 23h 29.2 15.7 44 - 9 19 1011.4 +1.3/3h 0.0/3h -
S 22 h 00h 29.0 15.5 44 - 7 15 1012.1 +1.4/3h 0.0/1h -
S 23 h 01h 29.0 15.2 43 - 15 26 1012.1 +1.2/3h 0.0/1h -
evolution des temperatures
cumul des precipitations
vent moyen et rafales
pression atmospherique

Un tiret (-) signifie que les données ne sont pas disponibles.

Passez la souris sur les pictos temps pour avoir plus de précisions. Passez les flèches sur l'icône de la direction du vent pour voir la direction précise en degrés.

Les données de l'heure en cours sont disponibles à partir de H+15 minutes.


S signifie station Synop, plus complète qu'une station Metar (M). Il y a +1h de différence entre l'heure UTC et l'heure légale en hiver et +2h en été.

Td est la mesure du point de rosée.

HR est l'humidité relative/p>

Vis est la visibilité

Néb est la nébulosité du ciel (couverture nuageuse) exprimée en octas (de 0/8 à 8/8).

Vent moy 10 min donne le vent moyen sur les 10 minutes qui précèdent le relevé.

Vent raf 1h donne la rafale maximale mesurée dans l'heure qui précède le relevé.


Les données les plus anciennes remontent à avril 2014.

Les données présentées sur cette page proviennent des stations météo officielles. Les relevés sont effectués aux normes en vigueur (anémomètre à 10m de haut, thermomètre sous abri normalisé à 2m du sol...)

Météo 60 décline toute responsabilité en cas d'absence de données, d'erreurs, de mauvaise utilisation ou interprétation et n'est pas habilité à fournir des certificats intempéries.